Other Public Products
Issued by NWS Grand Forks, ND

Home | Current Version | Previous Version | Graphics & Text | Print | Product List | Glossary On
Versions: 1 2 3 4 5 6 7 8 9 10 11 12 13 14 15 16 17 18 19 20 21 22 23 24 25 26 27 28 29 30 31 32 33 34 35 36 37 38 39 40 41 42 43 44 45 46 47 48 49 50
000
FPUS83 KFGF 300431
OPUFGF
PRAIRIE TO PINES WEATHER ROUNDUP
NATIONAL WEATHER SERVICE EASTERN NORTH DAKOTA/GRAND FORKS ND
1100 PM CDT WED JUL 29 2015

 **SATELLITE DATA USED TO AUGMENT SKY COVER AT AUTOMATED STATIONS**
 *****  WEATHER ACROSS EASTERN NORTH DAKOTA  *****

CITY           SKY/WX    TMP DP  RH WIND       PRES   REMARKS
GRAND FORKS    CLEAR     65  58  78 W8        29.90S
GRAND FORKS AF CLEAR     65  58  77 W8        29.92R
GRAND CITY NWS   N/A     66 N/A N/A W5          N/A
BUXTON         NOT AVBL
DEVILS LAKE    CLEAR     68  54  60 W13       29.96S
FARGO          CLEAR     69  58  67 W13       29.95R
WAHPETON ARPT  CLEAR     61  54  77 W8        29.99S
$$

 *****  WEATHER ACROSS CENTRAL AND WESTERN NORTH DAKOTA  *****

CITY           SKY/WX    TMP DP  RH WIND       PRES   REMARKS
JAMESTOWN      CLEAR     67  52  58 W7        30.01R
BISMARCK       CLEAR     68  52  56 W6        30.08R
MINOT          CLEAR     64  53  67 SW8       30.03R
MINOT AFB      CLEAR     59  58  96 W10       30.02R
GARRISON         N/A     61  52  72 NW9       30.07R
WILLISTON      PTCLDY    66  50  56 NW8       30.08R
DICKINSON      CLEAR     62  47  57 W5        30.13R
HETTINGER      CLEAR     54  48  80 CALM      30.17R
$$

 *****  OTHER OBSERVATIONS NORTHEAST NORTH DAKOTA  *****

CITY           SKY/WX    TMP DP  RH WIND       PRES   REMARKS
WALHALLA       FAIR      66  59  77 MISG      29.91R
LANGDON        FAIR      61  57  88 W9        29.95S
CAVALIER       FAIR      64  59  82 W7        29.90R
GRAFTON        FAIR      64  61  88 W8        29.91R
CANDO          FAIR      59  55  88 W8        29.98R
FORT TOTTEN      N/A     66  56  70 NW5       29.95
ROLLA          FAIR      61  55  82 W9        29.99S
RUGBY          NOT AVBL
 ***** THE ABOVE OBSERVATIONS ARE NON NWS ARE NOT QUALITY
        CONTROLLED AND MAY MIS-REPORT RAIN FOR SNOW...
$$

 *****  OTHER OBSERVATIONS SOUTHEAST NORTH DAKOTA *****

CITY           SKY/WX    TMP DP  RH WIND       PRES   REMARKS
COOPERSTOWN    NOT AVBL
VALLEY CITY    FAIR      64  57  77 W12       30.00S
OAKES            N/A     61  55  82 W6        30.04R
GWINNER          N/A     61  57  88 W8        30.03S
SHEYENNE NWR     N/A     65  56  72 W5        29.95S
BUFFALO        NOT AVBL
WYNDMERE       NOT AVBL
 ***** THE ABOVE OBSERVATIONS ARE NON NWS ARE NOT QUALITY
       CONTROLLED AND MAY MIS-REPORT RAIN FOR SNOW...
$$

  *****  WEATHER ACROSS NORTHERN MINNESOTA  *****

CITY           SKY/WX    TMP DP  RH WIND       PRES   REMARKS
FLAG ISLAND    PTCLDY    68  59  73 NW18G25   29.80S
WARROAD        CLEAR     64  57  77 W8        29.85R
ROSEAU         CLEAR     64  55  72 W10       29.85S
HALLOCK        CLEAR     63  57  82 W6        29.88R
THF RVR FALLS  CLEAR     64  57  77 W7        29.90S
HALSTAD        NOT AVBL
FOSSTON        CLEAR     59  55  88 SW3       29.93S
BAUDETTE       PTCLDY    64  53  67 W9        29.82R
WASKISH        PTCLDY    70  55  60 W15G21    29.86S
CROOKSTON      CLEAR     64  57  77 W7        29.92R
$$
  *****  WEATHER ACROSS CENTRAL AND WEST MINNESOTA  *****

CITY           SKY/WX    TMP DP  RH WIND       PRES   REMARKS
BEMIDJI        PTCLDY    65  55  70 W8        29.91R
PARK RAPIDS    PTCLDY    69  55  60 W12       29.94R
WADENA         CLEAR     66  55  68 W7        29.96S
DETROIT LAKES  CLEAR     70  55  60 W9        29.98R
MOORHEAD       CLEAR     64  57  77 SW8       29.97R
FERGUS FALLS   CLEAR    N/A N/A N/A W7        29.98S
ELBOW LAKE     FAIR      65  56  72 W9        30.00S
MORRIS MN      CLEAR     66  57  72 W9        30.01S
STAPLES        PTCLDY    66  54  63 W9        29.96S
WHEATON        CLEAR     64  54  68 W9        30.03S
$$
  *****  WEATHER ELSEWHERE ACROSS MINNESOTA  *****

CITY           SKY/WX    TMP DP  RH WIND       PRES   REMARKS
DULUTH         PTCLDY    65  53  65 W12       29.86R
INTRNTL FALLS  MOCLDY    64  55  72 W7        29.79S
ELY            MOCLDY    66  52  59 W12G20    29.80S
CLOQUET        PTCLDY    66  52  59 W8        29.88R
BRAINERD       PTCLDY    70  55  59 W13       29.94R
HIBBING        PTCLDY    66  52  60 W8        29.85R
ALEXANDRIA     CLEAR     69  56  62 W10       30.01S
SAINT CLOUD    CLEAR     69  55  60 W9        29.97R
MINNEAPOLIS    CLEAR     73  56  54 W7        29.98R
$$

  *****  WEATHER ACROSS SOUTH DAKOTA  *****

CITY           SKY/WX    TMP DP  RH WIND       PRES   REMARKS
SIOUX FALLS    CLEAR     65  59  81 W3        30.10R
BROOKINGS      CLEAR     66  54  63 W6        30.11S
WATERTOWN      CLEAR     62  55  77 W8        30.08R
HURON          CLEAR     67  58  72 CALM      30.08R
SISSETON         N/A     66  55  67 W6        30.02S
ABERDEEN       CLEAR     61  55  81 SW5       30.06R
MITCHELL       CLEAR     66  56  70 N3        30.09R
PIERRE         CLEAR     67  47  48 NW9       30.09R
MOBRIDGE       CLEAR     59  56  89 CALM      30.07R
RAPID CITY     CLEAR     61  49  64 NE9       30.20R
$$

  *****  SOME WEATHER IN NEARBY STATES *****

CITY           SKY/WX    TMP DP  RH WIND       PRES   REMARKS
GLASGOW MT     CLEAR     70  44  39 W5        30.08R
GREAT FALLS MT CLEAR     62  43  49 SW6       30.17R
CHEYENNE WY    PTCLDY    65  48  54 SE8       30.35R
SCOTTSBLUFF NE PTCLDY    69  55  60 E7        30.22R
OMAHA NE       CLEAR     71  62  73 SE6       30.15R
DES MOINES IA  CLEAR     71  61  70 SW7       30.13R
DAVENPORT IA   CLEAR     67  61  81 W7        30.08S
CHICAGO IL     CLEAR     73  57  57 W8        30.01S
EAU CLAIRE WI  CLEAR     68  55  63 W7        29.95R
LA CROSSE WI   CLEAR     74  55  51 W10       29.98S
$$

  *****  SOME NATIONAL WEATHER *****

CITY           SKY/WX    TMP DP  RH WIND       PRES   REMARKS
LA GUARDIA NY  PTCLDY    83  71  67 SW9       29.92S
RALEIGH NC     PTCLDY    80  70  71 SE6       29.99F
ATLANTA GA     MOCLDY    82  72  71 CALM      30.01R
NEW ORLEANS LA LGT RAIN  79  74  84 N3        30.02F
OKLAHOMA CITY  PTCLDY    83  71  67 SE6       30.08R
ALBUQUERQUE NM CLOUDY    68  59  73 SE10      30.35R
SALT LAKE CITY PTCLDY    76  40  27 W3        30.22R
LOS ANGELES CA MOCLDY    68  64  88 W9        29.97R
BOISE ID       CLEAR     79  37  22 W6        30.14R
SEATTLE WA     CLEAR     77  49  37 N9        30.09S
$$

*** WEATHER ACROSS MANITOBA...SASKATCHEWAN AND ONTARIO ***
                ***ONTARIO***

CITY           SKY/WX    TMP DP  RH WIND       PRES   REMARKS
GERALDTON      DRZL/FOG  63  61  94 SW15G24   29.52S VSB 1
THUNDER BAY    MOCLDY    70  57  64 W20G28    29.64F
SIOUX LOOKOUT  LGT RAIN  61  55  82 NW20G38   29.63R
TORONTO        MOCLDY    81  66  61 SW12      29.82F
BIG TROUT LK   LGT RAIN  54  54 100 NW13G25   29.36R
PICKLE LAKE    NOT AVBL
DRYDEN         CLOUDY    63  55  77 W21G31    29.68R
KENORA         PTCLDY    63  55  77 NW12G23   29.77R
$$
                *** MANITOBA***

CITY           SKY/WX    TMP DP  RH WIND       PRES   REMARKS
BRANDON        PTCLDY    61  57  88 W8        29.93R
DAUPHIN        CLOUDY    63  59  88 W9        29.88S
ISLAND LAKE    LGT RAIN  57  55  94 NW12      29.66R
PILOT MOUND      N/A     59  54  82 W5          N/A
THE PAS        MOCLDY    63  59  88 CALM      29.81R
THOMPSON       MOCLDY    61  55  82 NW6       29.72R
WINNIPEG       CLEAR     61  57  88 W9        29.85R
LYNN LAKE        N/A    N/A N/A N/A MISG        N/A
CHURCHILL      CLOUDY    48  48 100 N17       29.61F FOG
GILLAM         CLOUDY    57  54  88 N17G25    29.61S
$$
                ***SASKATCHEWAN***

CITY           SKY/WX    TMP DP  RH WIND       PRES   REMARKS
ESTEVAN        PTCLDY    64  54  68 W9        30.05R
KINDERSLEY     MOCLDY    57  54  88 S5        30.07R
LLOYDMINSTER   PTCLDY    57  50  77 W12       30.04R
PRINCE ALBERT  PTCLDY    61  54  77 W6        29.93R
REGINA         CLOUDY    63  55  77 W12G17    30.03R


USA.gov is the U.S. government's official web portal to all federal, state and local government web resources and services.